sat.trackr.live / text

‹ back to catalog

STARLINK-31559

NORAD 59358 · 2024-060L

PAYLOAD ACTIVE UNKNOWN

§ Identity

Operator
Country
US
Launch date
2024-03-31
Launch site
AFETR
Launch vehicle
Mass (kg)
RCS (m²)

Purposes: comms

External: N2YO · Heavens-Above · Gunter

§ Orbital elements

Epoch: 2026-05-25T04:29:19.068864Z

Period
94.27 min
Inclination
43.0023°
Eccentricity
0.0001378
Mean motion
15.27573254 rev/d
Perigee alt
482.1 km
Apogee alt
484.0 km
Semi-major
6,861.2 km
B*
1.3311e-5
RAAN
187.7088°
Arg perigee
271.0204°
Mean anomaly
89.0490°
Rev number
12,176

§ Raw data

STARLINK-315591 59358U 24060L   26145.18702626  .00000104  00000+0  13311-4 0  99992 59358  43.0023 187.7088 0001378 271.0204  89.0490 15.27573254121766

JSON: /api/v1/satellites/59358 · /tle

For live sub-satellite position, see the globe view (requires WebGL).

§ Visibility from observer

Set your observer location to see the next 7 days of passes ≥ 10°. The values pass through the URL so the page stays shareable.

No JS? Fill the form by hand. The geolocation button needs JavaScript.